Weather History for KFLD - October, 2012

Change the Weather History Date:

Tuesday, October 16, 2012

  Actual Average Record
Temperature  
Mean Temperature 52 °F -  
Max Temperature 66 °F 57 °F 82 °F (1953)
Min Temperature 39 °F 40 °F 21 °F (1952)
Degree Days  
Heating Degree Days 12    
Growing Degree Days 2 (Base 50)    
Moisture  
Dew Point 43 °F    
Average Humidity 73    
Maximum Humidity 89    
Minimum Humidity 44    
Precipitation  
Precipitation 0.00 in - - ()
Sea Level Pressure  
Sea Level Pressure 29.70 in    
Wind  
Wind Speed 9 mph (SSE)    
Max Wind Speed 20 mph    
Max Gust Speed 29 mph    
Visibility 10 miles    
Events Rain    
Averages and records for this station are not official NWS values.
T = Trace of Precipitation, MM = Missing Value Source: NWS Daily Summary

Daily Weather History Graph

Daily Weather History Graph

Search for Another Location

Airport or City:

Trip Planner

Search our weather history database for the weather conditions in past years. The results will help you decide how hot, cold, wet, or windy it might be!

Date:

Astronomy

Oct. 16, 2012 Rise Set
Actual Time 7:10 AM CDT 6:07 PM CDT
Civil Twilight 6:41 AM CDT 6:36 PM CDT
Nautical Twilight 6:07 AM CDT 7:10 PM CDT
Astronomical Twilight 5:34 AM CDT 7:43 PM CDT
Moon 8:36 AM CDT (10/16) 6:47 PM CDT (10/16)
Length of Visible Light 11h 55m
Length of Day
10h 57m
New Moon, 2% of the Moon is Illuminated
Oct 16
New Moon
Oct 21
First Quarter
Oct 29
Full
Nov 6
Last Quarter
Nov 13
New

Hourly Weather History & Observations

Time (CDT) Temp. Windchill Dew Point Humidity Pressure Visibility Wind Dir Wind Speed Gust Speed Precip Events Conditions
12:53 AM 39.9 °F 34.5 °F 36.0 °F 86% 29.93 in - South 8.1 mph - N/A   Partly Cloudy
1:53 AM 41.0 °F 39.0 °F 37.9 °F 89% 29.92 in - SSE 3.5 mph - N/A   Overcast
2:53 AM 39.9 °F 35.1 °F 37.0 °F 89% 29.91 in - South 6.9 mph - N/A   Scattered Clouds
3:53 AM 42.1 °F 39.2 °F 39.0 °F 89% 29.88 in - South 4.6 mph - N/A   Clear
4:53 AM 43.0 °F 39.5 °F 39.0 °F 86% 29.87 in - SSE 5.8 mph - N/A   Mostly Cloudy
5:53 AM 44.1 °F 40.8 °F 39.9 °F 85% 29.86 in - SSE 5.8 mph - N/A   Overcast
7:53 AM 46.0 °F 42.5 °F 41.0 °F 83% 29.85 in - SSE 6.9 mph - N/A   Partly Cloudy
8:53 AM 50.0 °F - 41.0 °F 71% 29.82 in - South 12.7 mph - N/A   Clear
9:53 AM 52.0 °F - 42.1 °F 69% 29.78 in - South 16.1 mph 23.0 mph N/A   Clear
10:53 AM 54.0 °F - 42.1 °F 64% 29.75 in - South 18.4 mph 28.8 mph N/A   Clear
11:53 AM 57.9 °F - 43.0 °F 58% 29.74 in - South 19.6 mph 27.6 mph N/A   Clear
12:53 PM 61.0 °F - 43.0 °F 52% 29.69 in 10.0 mi South 15.0 mph - N/A   Clear
1:53 PM 64.9 °F - 43.0 °F 45% 29.63 in 10.0 mi SSE 18.4 mph - N/A   Clear
2:53 PM 66.9 °F - 44.1 °F 44% 29.60 in 10.0 mi South 13.8 mph 19.6 mph N/A   Clear
3:53 PM 62.1 °F - 44.1 °F 52% 29.60 in 10.0 mi SSE 9.2 mph - 0.00 in Rain Light Rain
4:53 PM 59.0 °F - 46.9 °F 64% 29.54 in 10.0 mi East 12.7 mph - 0.00 in   Scattered Clouds
5:53 PM 55.0 °F - 46.9 °F 74% 29.57 in 10.0 mi ESE 8.1 mph - 0.00 in   Clear
6:53 PM 55.0 °F - 46.9 °F 74% 29.55 in 10.0 mi ESE 6.9 mph - N/A   Clear
7:53 PM 55.0 °F - 48.0 °F 77% 29.53 in 10.0 mi SSE 13.8 mph - N/A   Clear
8:53 PM 54.0 °F - 48.0 °F 80% 29.52 in 10.0 mi SSE 10.4 mph - N/A   Clear
9:53 PM 54.0 °F - 48.0 °F 80% 29.51 in 10.0 mi SSE 6.9 mph - N/A   Partly Cloudy
10:53 PM 54.0 °F - 48.9 °F 83% 29.48 in 10.0 mi SSE 10.4 mph - N/A   Clear
11:53 PM 53.1 °F - 48.0 °F 83% 29.47 in 10.0 mi SSE 4.6 mph - N/A   Clear